Terug naar catalogus

ORBCOMM FM 38

ActiefCommunicatieLEO
NORAD 33060·PAYLOAD·🇺🇸 United States

Gelanceerd Jun 19, 2008 vanaf Kapustin Yar

Loading…

Volgende Passages (komende 24 uur)

TLE

VersSource: Space-Track

Epoch: Sep 14, 2026, 12:09 UTC

1 33060U 08031A   26257.50671577  .00000893  00000-0  13434-3 0  9992
2 33060  48.4406 306.3612 0004926 209.6433 150.4205 14.83312522982152

Volg ORBCOMM FM 38 in realtime met AllMySat

Download on the App Store